Weather History for KGEV - February, 2013

Change the Weather History Date:

Monday, February 11, 2013

  Actual Average Record
Temperature  
Mean Temperature 46 °F -  
Max Temperature 58 °F 45 °F 64 °F (1993)
Min Temperature 34 °F 21 °F 1 °F (1980)
Degree Days  
Heating Degree Days 19    
Moisture  
Dew Point 37 °F    
Average Humidity 69    
Maximum Humidity 95    
Minimum Humidity 32    
Precipitation  
Precipitation 0.06 in - - ()
Sea Level Pressure  
Sea Level Pressure 30.00 in    
Wind  
Wind Speed 9 mph (SW)    
Max Wind Speed 29 mph    
Max Gust Speed 43 mph    
Visibility 9 miles    
Events Rain    
Averages and records for this station are not official NWS values.
T = Trace of Precipitation, MM = Missing Value Source: NWS Daily Summary

Daily Weather History Graph

Daily Weather History Graph

Search for Another Location

Airport or City:

Trip Planner

Search our weather history database for the weather conditions in past years. The results will help you decide how hot, cold, wet, or windy it might be!

Date:

Astronomy

Feb. 11, 2013 Rise Set
Actual Time 7:17 AM EST 6:02 PM EST
Civil Twilight 6:51 AM EST 6:29 PM EST
Nautical Twilight 6:20 AM EST 6:59 PM EST
Astronomical Twilight 5:50 AM EST 7:29 PM EST
Moon 7:45 AM EST (2/11) 7:53 PM EST (2/11)
Length of Visible Light 11h 38m
Length of Day
10h 45m
Waxing Crescent, 3% of the Moon is Illuminated
Feb 11
Waxing Crescent
Feb 17
First Quarter
Feb 25
Full
Mar 4
Last Quarter
Mar 11
New

Hourly Weather History & Observations

Time (EST) Temp. Windchill Dew Point Humidity Pressure Visibility Wind Dir Wind Speed Gust Speed Precip Events Conditions
12:15 AM 34.7 °F 30.6 °F 33.4 °F 95% 30.09 in 0.2 mi South 4.6 mph - N/A Rain Light Rain
12:35 AM 37.0 °F 31.6 °F 35.8 °F 95% 30.09 in 0.2 mi SSE 6.9 mph - N/A   Drizzle
12:55 AM 38.3 °F 33.9 °F 37.0 °F 95% 30.09 in 0.2 mi SSE 5.8 mph - N/A   Drizzle
1:15 AM 39.4 °F 34.5 °F 38.1 °F 95% 30.08 in 0.2 mi South 6.9 mph - N/A   Heavy Drizzle
1:35 AM 40.6 °F 36.0 °F 39.4 °F 95% 30.07 in 0.5 mi SSE 6.9 mph - N/A   Drizzle
1:55 AM 42.3 °F 37.9 °F 41.0 °F 95% 30.08 in 1.8 mi South 6.9 mph - N/A   Drizzle
2:15 AM 43.3 °F 38.6 °F 41.9 °F 95% 30.05 in 2.5 mi SSE 8.1 mph 20.7 mph N/A   Drizzle
2:35 AM 43.7 °F 39.1 °F 42.3 °F 95% 30.05 in 4.0 mi SSE 8.1 mph - N/A Rain Light Rain
2:55 AM 44.6 °F 40.2 °F 43.2 °F 95% 30.04 in 7.0 mi SSE 8.1 mph 18.4 mph N/A   Light Drizzle
3:15 AM 44.8 °F 41.0 °F 43.3 °F 95% 30.04 in 3.0 mi South 6.9 mph - N/A Rain Light Rain
3:35 AM 45.5 °F 42.5 °F 43.9 °F 94% 30.03 in 4.0 mi South 5.8 mph 16.1 mph N/A Rain Light Rain
4:15 AM 46.4 °F 42.9 °F 44.8 °F 94% 30.02 in 10.0 mi South 6.9 mph - N/A   Overcast
4:35 AM 46.8 °F - 45.0 °F 93% 30.02 in 10.0 mi SSE 5.8 mph - N/A   Overcast
4:55 AM 47.3 °F - 45.1 °F 92% 30.02 in 10.0 mi SSE 9.2 mph - N/A   Overcast
5:15 AM 47.8 °F - 45.1 °F 90% 30.02 in 10.0 mi SSE 4.6 mph - N/A   Light Drizzle
5:35 AM 48.2 °F - 45.3 °F 90% 30.03 in 10.0 mi South 3.5 mph - N/A   Overcast
5:55 AM 48.6 °F - 45.3 °F 89% 30.03 in 10.0 mi South 3.5 mph - N/A Rain Rain
6:15 AM 48.2 °F - 45.0 °F 89% 30.02 in 10.0 mi SSE 3.5 mph - N/A   Light Drizzle
6:35 AM 47.7 °F - 45.1 °F 91% 30.00 in 10.0 mi South 4.6 mph - N/A   Mostly Cloudy
6:55 AM 47.5 °F - 45.3 °F 92% 30.00 in 10.0 mi SSE 3.5 mph - N/A   Overcast
7:15 AM 47.7 °F - 45.3 °F 92% 30.02 in 10.0 mi SSE 3.5 mph - N/A   Overcast
7:35 AM 48.6 °F - 45.5 °F 89% 30.02 in 10.0 mi Calm Calm - N/A   Overcast
7:55 AM 48.6 °F - 45.5 °F 89% 30.02 in 10.0 mi Calm Calm - N/A   Mostly Cloudy
8:15 AM 47.8 °F - 45.0 °F 90% 30.01 in 10.0 mi SSE 4.6 mph - N/A   Scattered Clouds
8:35 AM 48.6 °F - 45.5 °F 89% 30.02 in 10.0 mi Calm Calm - N/A   Mostly Cloudy
8:55 AM 51.1 °F - 44.8 °F 79% 30.02 in 10.0 mi SW 3.5 mph - N/A   Mostly Cloudy
9:15 AM 49.6 °F - 45.7 °F 86% 30.02 in 10.0 mi SSE 3.5 mph - N/A   Scattered Clouds
9:35 AM 49.8 °F - 46.4 °F 88% 30.02 in 10.0 mi SE 3.5 mph - N/A   Scattered Clouds
9:55 AM 51.6 °F - 47.8 °F 87% 30.00 in 10.0 mi SSE 4.6 mph - N/A   Scattered Clouds
10:15 AM 54.3 °F - 47.7 °F 78% 30.01 in 10.0 mi South 6.9 mph - N/A   Mostly Cloudy
10:35 AM 53.2 °F - 47.3 °F 80% 30.00 in 10.0 mi SSW 3.5 mph - N/A   Overcast
10:55 AM 57.0 °F - 47.1 °F 69% 30.01 in 10.0 mi SSW 5.8 mph - N/A   Overcast
11:15 AM 57.4 °F - 43.7 °F 60% 29.99 in 10.0 mi WSW 8.1 mph - N/A   Overcast
11:35 AM 58.1 °F - 42.8 °F 57% 29.99 in 10.0 mi WSW 11.5 mph 19.6 mph N/A   Overcast
11:55 AM 56.5 °F - 43.7 °F 62% 30.00 in 10.0 mi WNW 13.8 mph - N/A   Overcast
12:15 PM 54.5 °F - 44.6 °F 69% 30.00 in 10.0 mi West 17.3 mph 21.9 mph N/A   Overcast
12:35 PM 54.0 °F - 44.1 °F 69% 30.00 in 10.0 mi West 9.2 mph 19.6 mph N/A   Overcast
12:55 PM 53.2 °F - 42.8 °F 68% 29.98 in 10.0 mi West 19.6 mph 26.5 mph N/A   Overcast
1:15 PM 52.5 °F - 42.1 °F 68% 29.98 in 10.0 mi WSW 13.8 mph 23.0 mph N/A   Overcast
1:35 PM 52.7 °F - 42.1 °F 67% 29.97 in 10.0 mi West 17.3 mph 23.0 mph N/A   Overcast
1:55 PM 52.3 °F - 40.3 °F 64% 29.99 in 10.0 mi West 16.1 mph 27.6 mph N/A   Overcast
2:15 PM 52.7 °F - 37.9 °F 57% 30.00 in 10.0 mi West 18.4 mph 27.6 mph N/A   Overcast
2:35 PM 52.7 °F - 36.3 °F 54% 29.99 in 10.0 mi WSW 13.8 mph 23.0 mph N/A   Mostly Cloudy
2:55 PM 52.2 °F - 35.4 °F 53% 29.97 in 10.0 mi West 13.8 mph 23.0 mph N/A   Scattered Clouds
3:15 PM 52.3 °F - 31.5 °F 45% 29.97 in 10.0 mi WSW 16.1 mph 24.2 mph N/A   Clear
3:35 PM 52.2 °F - 28.9 °F 41% 29.96 in 10.0 mi West 11.5 mph 24.2 mph N/A   Clear
3:55 PM 51.8 °F - 28.2 °F 40% 29.97 in 10.0 mi West 15.0 mph 24.2 mph N/A   Clear
4:15 PM 51.8 °F - 24.8 °F 35% 29.97 in 10.0 mi West 16.1 mph 23.0 mph N/A   Clear
4:35 PM 51.3 °F - 22.5 °F 32% 29.97 in 10.0 mi West 11.5 mph 29.9 mph N/A   Clear
4:55 PM 50.5 °F - 21.4 °F 32% 29.96 in 10.0 mi WSW 13.8 mph 24.2 mph N/A   Clear
5:55 PM 48.6 °F - 26.6 °F 42% 29.96 in 10.0 mi West 18.4 mph 27.6 mph N/A   Clear
6:15 PM 48.0 °F - 26.8 °F 44% 29.97 in 10.0 mi West 10.4 mph 21.9 mph N/A   Clear
6:35 PM 47.3 °F - 29.1 °F 49% 29.97 in 10.0 mi WSW 9.2 mph 24.2 mph N/A   Clear
6:55 PM 46.8 °F - 30.6 °F 53% 29.97 in 10.0 mi West 11.5 mph 21.9 mph N/A   Clear
7:15 PM 46.4 °F 40.1 °F 30.4 °F 54% 29.98 in 10.0 mi West 15.0 mph 21.9 mph N/A   Clear
7:35 PM 45.9 °F 40.0 °F 30.2 °F 54% 29.98 in 10.0 mi West 12.7 mph 16.1 mph N/A   Clear
8:15 PM 45.7 °F 38.3 °F 28.2 °F 51% 29.98 in 10.0 mi West 18.4 mph 35.7 mph N/A   Clear
8:35 PM 45.5 °F 37.6 °F 27.9 °F 50% 29.98 in 10.0 mi West 20.7 mph 32.2 mph N/A   Clear
8:55 PM 45.0 °F 35.4 °F 26.4 °F 48% 29.97 in 10.0 mi West 28.8 mph 38.0 mph N/A   Clear
9:35 PM 44.4 °F 36.6 °F 24.1 °F 45% 29.96 in 10.0 mi WNW 18.4 mph 31.1 mph N/A   Clear
9:55 PM 44.2 °F 36.4 °F 23.5 °F 44% 29.97 in 10.0 mi West 18.4 mph 35.7 mph N/A   Clear
10:15 PM 44.1 °F 35.4 °F 23.4 °F 44% 29.96 in 10.0 mi West 21.9 mph 35.7 mph N/A   Clear
10:35 PM 43.9 °F 34.1 °F 23.4 °F 44% 29.97 in 10.0 mi West 27.6 mph 38.0 mph N/A   Clear
10:55 PM 43.7 °F 35.0 °F 22.1 °F 42% 29.98 in 10.0 mi West 21.9 mph 42.6 mph N/A   Clear
11:15 PM 43.5 °F 33.8 °F 22.5 °F 43% 29.98 in 10.0 mi West 26.5 mph 38.0 mph N/A   Clear
11:35 PM 43.0 °F 34.0 °F 21.7 °F 43% 29.97 in 10.0 mi West 21.9 mph 40.3 mph N/A   Clear
11:55 PM 42.8 °F 33.3 °F 20.5 °F 41% 29.96 in 10.0 mi WNW 24.2 mph 35.7 mph N/A   Clear